Время (UTC), дата Ветер
(°,м/с) 
Видим.   Явления Облачность Т
(°С)
Тd
(°С)
f(%) Тe
(°С)
Pmin
(гПа)
dP
(гПа)
Po
(мм)
O2
(г/м3)
Тmin Tmax R s Состояние
почвы
00 01.01.13 230 (ЮЗ) 10 км    ясно 
-0.3 -1.6 91 1023.4  -0.3  765  309           
03 01.01.13 тихо ()   10 км    ясно 
-1.4 -2.4 93 -1  1023.1  -0.2  764  310  -1.4         
09 01.01.13 300 (СЗ) 10 км    6/0 средняя, верхняя 
[Ac trans|Cc]
+5.6 +1.4 74 +6  1024.2  0.6  765  302           
12 01.01.13 270 (З) 10 км    ясно 
+7.8 -0.7 55 +8  1023.4  -0.8  765  300           
15 01.01.13 тихо ()   10 км    ясно 
+2.1 -1.8 75 +2  1024.3  0.8  765  306    +8.3       
18 01.01.13 тихо ()   10 км    ясно 
-0.7 -2.1 90 -1  1025.4  766  310           
00 02.01.13 200 (Ю) 4000 м  дымка  4/0 
[St]
-2.3 -3.1 94 -2  1026  0.3  767  312           
06 02.01.13 050 (СВ) 1000 м  дымка  10/5 100 м верхняя 
[St|Ci]
-2.8 -3.4 96 -2  1027.8  1.4  768  313  -3.6         
09 02.01.13 080 (В) 10 км  {туман}  ясно 
+5.4 +0.3 70 +6  1027.6  1.4  768  303           
12 02.01.13 050 (СВ) 10 км  {туман}  ясно 
+8.2 +0.1 57 +9  1027.4  -0.1  768  300           
15 02.01.13 тихо ()   10 км    ясно 
+2.7 -0.5 79 +3  1028.3  0.8  768  307    +9.2       
18 02.01.13 тихо ()   10 км    ясно 
-0.8 -2 91 -1  1028.9  0.5  769  311           
21 02.01.13 тихо ()   10 км    ясно 
-1.7 -2.6 94 -2  1028.8  0.1  769  312           
00 03.01.13 210 (ЮЗ) 10 км    ясно 
-2.4 -3.1 95 -2  1029  0.2  769  313           
03 03.01.13 тихо ()   10 км    ясно 
-3.4 -4.4 93 -3  1028.6  -0.4  769  314  -3.4         
06 03.01.13 тихо ()   10 км    ясно 
-0.4 -1.3 94 -0  1028.8  0.3  769  310  -3.9         
09 03.01.13 260 (З) 10 км    ясно 
+8 +1.8 65 +9  1028  -0.7  768  300           
12 03.01.13 280 (З) 10 км    3/0 средняя 
[Ac trans]
+9.5 +0 52 +10  1026.3  -1.7  767  299           
18 03.01.13 тихо ()   10 км    8/3 1000 м средняя 
[Sc|Ac trans]
+2.8 +1.7 92 +3  1025.5  -0.9  766  305           
21 03.01.13 220 (ЮЗ) 10 км    10/6 1000 м средняя 
[Sc|Ac und]
+5.2 +2.2 81 +6  1023.8  -1.6  765  302           
00 04.01.13 220 (ЮЗ) 4000 м  слаб. дождь  10/10 600 м 
[Ns]
+7.1 +3.1 76 +7  1022.5  -1.3  764  300           
03 04.01.13 300 (СЗ) 4000 м  слаб. дождь  10/10 600 м 
[Ns]
+3.6 +2.5 93 +2  1021.5  -1.1  763  303  +1       
06 04.01.13 270 (З) 10 км  {дождь}  10/6 600 м средняя, верхняя 
[St|Ac trans|Cs]
+2.5 +0.9 89 +3  1021.3    763  305           
09 04.01.13 180 (Ю) 4000 м  дымка  10/6 1000 м средняя, верхняя 
[Sc|Ac trans|Ci fib]
+3.8 +1.6 86 +5  1020.1  -1.2  762  303           
12 04.01.13 130 (ЮВ) 10 км    10/3 1000 м средняя, верхняя 
[Sc|Ac trans|Cs]
+7.1 +0.6 63 +8  1017.3  -2.7  760  298           
18 04.01.13 190 (Ю) 4000 м  слаб. ливневой дождь  10/10 600 м кучево-дожд. 
[Cb cap]
+6 +3.6 85 +7  1014.1  -1.4  758  298           
21 04.01.13 160 (Ю) 10 км  {ливн. осадки}  10/5 1000 м кучево-дожд., средняя 
[Cb cap|Ac und]
+5.6 +3.8 88 +6  1012.3  -1.8  756  298           
00 05.01.13 тихо ()   10 км  {ливн. осадки}  10/8 1000 м кучево-дожд., средняя 
[Cb cap|Ac und]
+4.5 +2.4 86 +5  1010.2  -2.1  755  299           
03 05.01.13 180 (Ю) 10 км    10/4 1000 м средняя 
[Sc|Ac und]
+5.1 +2.7 84 +6  1008.5  -2.1  754  298  +4.5    0.5     
06 05.01.13 170 (Ю) 4000 м  слаб. ливневой дождь  10/10 300 м кучево-дожд. 
[Cb cap]
+4.5 +3.1 91 +5  1007.7  -2.1  753  298           
09 05.01.13 200 (Ю) 10 км  в посл. час ливневой дождь  9/8 1000 м кучево-дожд., средняя 
[Cb cap|Ac trans]
+6.5 +3.2 79 +6  1007.1  -0.5  753  296           
12 05.01.13 230 (ЮЗ) 10 км  в посл. час ливневой дождь  9/8 600 м кучево-дожд., средняя 
[Cb cap|Ac trans]
+6 +3.8 86 +6  1006.2  -1  752  296           
15 05.01.13 280 (З) 10 км  в посл. час ливневой дождь  10/10 600 м кучево-дожд. 
[Cb cap]
+4.5 +2.8 89 +5  1007.4  -1  753  298    +7.1     
18 05.01.13 180 (Ю) 10 км  {ливн. осадки}  9/9 1000 м 
[Sc]
+3.5 +2.3 92 +4  1007.8  0.4  753  299           
12 06.01.13 210 (ЮЗ) 10 км  {ливн. осадки}  10/8 1000 м кучево-дожд., средняя 
[Cb cap|Ac und]
+6 +2.1 76 +5  1006  -1  752  296           
15 06.01.13 150 (ЮВ) 4000 м  слаб. ливневой дождь  10/10 600 м кучево-дожд. 
[Cb cap]
+4.5 +2.4 86 +5  1006.2  0.2  752  298    +6.4       
18 06.01.13 160 (Ю) 4000 м  слаб. ливневой дождь  10/10 300 м кучево-дожд. 
[Cb cap]
+4 +2.4 89 +5  1006.5  0.3  752  298           
21 06.01.13 190 (Ю) 4000 м  слаб. дождь{ливн. осадки}  10/10 600 м 
[Frnb|Ns]
+3.1 +1.8 91 +3  1006.4  -0.1  752  299           
00 07.01.13 160 (Ю) 10 км  {ливн. осадки, дождь}  6/0 средняя, верхняя 
[Ac trans|Ci]
+2.6 +1.2 90 +3  1006.6  0.2  752  300           
12 07.01.13 340 (С) 4000 м  слаб. снег  10/10 300 м 
[Frnb|Ns]
+1.4 -0.7 86 +1  1007.2  -0.9  753  302           
15 07.01.13 330 (СЗ) 4000 м  слаб. снег  10/10 100 м 
[Frnb|Ns]
+0.2 -0.9 92 -2  1007.2  753  303    +1.6  0.5     
18 07.01.13 330 (СЗ) 2000 м  снег [диам. отлож. мокр. снега 1 мм]  10/10 100 м 
[Frnb|Ns]
-0.3 -1.1 94 -1  1006.8  -0.4  752  304           
21 07.01.13 020 (С) 4000 м  слаб. снег [диам. отлож. мокр. снега 2 мм]  10/10 100 м 
[Frnb|Ns]
-0 -0.8 94 -1  1006.4  -0.4  752  303           
00 08.01.13 030 (СВ) 4000 м  слаб. снег [диам. отлож. мокр. снега 2 мм]  10/10 300 м 
[Frnb|Ns]
-1.2 -2.4 92 -1  1006.8  0.4  752  305           
03 08.01.13 020 (С) 4000 м  слаб. снег [диам. отлож. мокр. снега 2 мм]  10/10 300 м 
[Frnb|Ns]
-1.6 -2.7 92 -1  1007  -0.1  752  305  -1.6    равномерный
сухой снег
100% 
06 08.01.13 340 (С) 4000 м  слаб. снег [диам. отлож. мокр. снега 2 мм]  10/10 300 м 
[Frnb|Ns]
-1.5 -2.8 91 -1  1008.3  1.4  753  306  -1.7         
09 08.01.13 300 (СЗ) 4000 м  слаб. ливневой снег [диам. отлож. мокр. снега 1 мм]  10/6 600 м кучево-дожд., средняя 
[Cb cap|Ac und]
-0.1 -2.6 83 +1  1009.5  1.2  754  304           
21 08.01.13 300 (СЗ) 4000 м  слаб. ливневой снег  10/10 300 м кучево-дожд. 
[Cb cap]
-2.4 -4.8 84 -2  1012.5  0.1  757  308           
00 09.01.13 280 (З) 4000 м  слаб. ливневой снег  10/10 200 м кучево-дожд. 
[Cb cap]
-2.6 -4.4 87 -2  1011.8  -0.8  756  308           
06 09.01.13 310 (СЗ) 10 км  {ливн. осадки}  10/4 300 м средняя 
[St|Ac und]
-3.2 -5.1 87 -3  1012.2  1.8  756  309  -3.7         
09 09.01.13 350 (С) 4000 м  слаб. снег  10/10 300 м 
[Sc]
-2.2 -5.8 76 -3  1012.5  0.3  757  308           
12 09.01.13 010 (С) 10 км  {снег}  9/4 300 м верхняя 
[St|Ci]
-2.7 -7.4 70 -2  1013.2  0.7  757  309           
15 09.01.13 340 (С) 10 км    10/1 300 м верхняя 
[St|Ci fib]
-5.1 -8.2 79 -5  1015  1.7  758  312    -1  0.2     
18 09.01.13 030 (СВ) 4000 м  слаб. снег  10/10 200 м 
[Frnb|Ns]
-5.5 -7.3 87 -5  1017.1  2.1  760  313           
21 09.01.13 030 (СВ) 10 км  в посл. час снег  10/3 300 м средняя 
[St|Ac und]
-5.8 -8.4 82 -5  1018  0.8  761  314           
00 10.01.13 тихо ()   10 км  {снег}  10/0 верхняя 
[Cs]
-6.6 -9.8 78 -7  1018.1  0.1  761  315           
03 10.01.13 300 (СЗ) 10 км    ясно 
-8.2 -10.1 86 -8  1018.3  0.2  761  317  -8.5    равномерный
сухой снег
100% 
06 10.01.13 080 (В) 10 км    3/0 средняя 
[Ac trans]
-8.4 -10.7 83 -8  1019.9  1.6  762  318           
09 10.01.13 170 (Ю) 10 км    3/0 верхняя 
[Ci fib]
-2.9 -9.8 59 -2  1019.9  762  311           
12 10.01.13 200 (Ю) 10 км    ясно 
-0.5 -8.6 54 1019.6  762  308           
15 10.01.13 070 (В) 10 км    ясно 
-4.8 -8.3 76 -4  1020.2  0.6  762  314    -0.4       
18 10.01.13 130 (ЮВ) 10 км    8/8 1000 м 
[Sc]
-3.9 -7.1 78 -5  1020.1  0.1  762  312           
21 10.01.13 тихо ()   10 км    10/10 1000 м 
[Sc]
-4.4 -6.8 83 -4  1020.6  0.4  763  313           
00 11.01.13 070 (В) 10 км    10/10 1000 м 
[Sc]
-3.5 -5.9 83 -3  1019.8  -0.8  762  312           
03 11.01.13 130 (ЮВ) 10 км  {ливн. осадки}  10/10 1000 м кучево-дожд. 
[Cb cap]
-2.4 -5.3 80 -2  1019  -0.8  761  310           
06 11.01.13 170 (Ю) 10 км  {ливн. осадки}  10/10 1000 м 
[Sc]
+1.2 -1.4 83 +2  1018.8  0.1  761  306           
09 11.01.13 190 (Ю) 10 км  слаб. дождь  10/10 600 м 
[Sc]
+2.9 +0.5 84 +4  1018.4  -0.5  761  303           
12 11.01.13 120 (ЮВ) 10 км  {дождь}  10/8 1000 м средняя 
[Sc|Ac und]
+4.1 +0.9 80 +5  1017.3  -1.1  760  302           
18 11.01.13 150 (ЮВ) 10 км    9/9 300 м 
[St]
+4.5 +0.3 74 +5  1017.5  0.1  760  301           
21 11.01.13 160 (Ю) 10 км    8/3 1000 м средняя 
[Sc|Ac trans]
+5.1 -1.6 62 +6  1017.6  760  301           
00 12.01.13 190 (Ю) 10 км    8/1 1000 м средняя, верхняя 
[Sc|Ac trans|Ci fib]
+6.2 -2.3 54 +5  1016.7  -0.8  760  300           
03 12.01.13 150 (ЮВ) 10 км    10/10 1000 м 
[Sc]
+6 -6.1 42 +6  1015.9  -0.8  759  300  +4.3      мокрый или
старый снег
50-90% 
06 12.01.13 190 (Ю) 10 км    10/8 1000 м средняя 
[Sc|Ac und]
+7.5 -4.5 42 +7  1016.9  760  299  +3.2         
09 12.01.13 190 (Ю) 4-11{11}  10 км    10/6 1000 м средняя 
[Sc|Ac und]
+8.4 -0.9 52 +7  1017.2  760  297           
12 12.01.13 190 (Ю) 4-11{13}  10 км    10/8 1000 м средняя 
[Sc|Ac und]
+8.9 -0 54 +8  1017.3  0.1  760  297           
15 12.01.13 120 (ЮВ) 1{12}  10 км    10/8 1000 м средняя 
[Sc|Ac und]
+7.8 -0.6 55 +9  1017.7  0.4  761  298    +9.2       
18 12.01.13 090 (В) 10 км    9/9 1000 м 
[Sc]
+4.6 -3.4 56 +4  1017  -0.8  760  302           
21 12.01.13 080 (В) 4000 м  слаб. ливневой дождь  10/10 1000 м кучево-дожд. 
[Cb cap]
+4.4 -1.8 64 +5  1016.6  -0.8  760  301           
00 13.01.13 090 (В) 10 км  {ливн. осадки}  10/10 1000 м кучево-дожд. 
[Cb cap]
+5 +0.3 72 +5  1015.9  -0.7  759  300           
03 13.01.13 080 (В) 10 км  слаб. ливневой дождь  10/10 1000 м кучево-дожд. 
[Cb cap]
+3.6 +0.7 81 +4  1013.6  -2.3  757  301  +3.2    0.6     
06 13.01.13 090 (В) 10 км  слаб. ливневой дождь  10/10 300 м кучево-дожд. 
[Cb cap]
+3.3 +0.4 81 +4  1013.3  -0.3  757  301           
09 13.01.13 080 (В) 10 км  слаб. ливневой дождь  10/10 300 м кучево-дожд. 
[Cb cap]
+4.5 +2.1 84 +5  1012.4  -1  756  300           
15 13.01.13 270 (З) 4-10{10}  4000 м  слаб. ливневой дождь  10/10 300 м кучево-дожд. 
[Cb cap]
+1.5 +0.2 91 -1  1019.2  762  305    +9.3     
21 13.01.13 270 (З) 10 км    10/10 600 м 
[Sc]
+0.5 -3.1 77 -1  1024.6  2.7  766  308           
00 14.01.13 270 (З) 10 км    8/6 1000 м средняя, верхняя 
[Sc|Ac trans|Ci]
-1 -5.7 70 -4  1026.3  1.7  767  311           
03 14.01.13 250 (З) 10 км    10/10 1000 м 
[Sc]
-1.5 -5.5 74 -3  1027.7  1.4  768  312  -1.5         
06 14.01.13 260 (З) 10 км    10/10 1000 м 
[Sc]
-1.9 -6.3 72 -3  1030  2.3  770  313  -2         
09 14.01.13 250 (З) 10 км  слаб. снег  10/10 1000 м 
[Sc]
-1.8 -5.7 75 -4  1031.4  1.4  771  313           
12 14.01.13 270 (З) 10 км  {снег}  10/10 1000 м 
[Sc]
-1 -5.9 69 -2  1031.9  0.5  771  312           
15 14.01.13 100 (В) 14  0100 м    6/6 <0100 м средняя 
[Sc|Ac trans]
-6   1032.8  0.9  772      -0.5  0.0     
18 14.01.13 290 (З) 10 км    10/10 1000 м 
[Sc]
-1.9 -6.6 70 -1  1033.3  0.5  772  314           
21 14.01.13 240 (ЮЗ) 10 км    10/10 1000 м 
[Sc]
-2.1 -6.9 70 -2  1033.5  0.5  772  314           
00 15.01.13 260 (З) 10 км    10/10 1000 м 
[Sc]
-2 -7.2 68 -1  1034  0.5  773  314           
03 15.01.13 240 (ЮЗ) 10 км    9/6 1000 м средняя 
[Sc|Ac trans]
-2.2 -7.6 66 -2  1034.3  0.2  773  315  -2.3         
06 15.01.13 тихо ()   10 км    ясно 
-3.4 -6.2 81 -3  1035.2  0.9  773  316  -4.7         
09 15.01.13 100 (В) 10 км    ясно 
+2.1 -7.4 49 +3  1034  -1.1  773  310           
12 15.01.13 тихо ()   10 км    ясно 
+5 -5 48 +5  1032.3  -1.6  771  306           
15 15.01.13 090 (В) 10 км    ясно 
+0.9 -4.6 67 +2  1031.9  -0.5  771  310    +5.1       
18 15.01.13 100 (В) 10 км    ясно 
-0 -4 74 -1  1030.9  -1  770  311           
21 15.01.13 100 (В) 10 км    ясно 
-1.1 -4.1 80 -2  1030.3  -0.5  770  312           
00 16.01.13 090 (В) 10 км    ясно 
-2.2 -4.7 83 -3  1028.3  -0.5  768  313           
03 16.01.13 090 (В) 10 км    ясно 
-2.9 -5.6 82 -4  1026.1  -2.2  767  313  -2.9         
06 16.01.13 090 (В) 10 км    10/0 средняя, верхняя 
[Ac trans|Ci fib]
-2.7 -5.8 79 -4  1024.8  -1.4  766  312  -3.2         
09 16.01.13 070 (В) 10 км    10/0 средняя, верхняя 
[Ac trans|Ci fib]
+1.3 -4.4 66 +2  1023  -1.7  764  307           
12 16.01.13 080 (В) 10 км    10/0 средняя, верхняя 
[Ac trans|Ci fib]
+5.8 -5.3 45 +6  1020.2  -2.7  762  301           
15 16.01.13 тихо ()   10 км    1/0 средняя 
[Ac trans]
+2.2 -2.3 72 +2  1019  -1.2  761  305    +6.8       
18 16.01.13 060 (СВ) 10 км    ясно 
+0.2 -3.2 78 +1  1016.6  -2.4  760  306           
21 16.01.13 070 (В) 10 км    ясно 
-0.7 -4.1 78 1014  -2.6  758  307           
00 17.01.13 070 (В) 10 км    10/6 1000 м средняя 
[Sc|Ac und]
-0.7 -4.1 78 1012.2  -1.8  756  306           
03 17.01.13 тихо ()   10 км    10/6 1000 м средняя 
[Sc|Ac und]
-0.4 -4.1 76 -0  1009.8  -2.4  755  305  -1.2         
06 17.01.13 тихо ()   10 км    10/8 1000 м средняя 
[Sc|Ac und]
+0 -4 74 1008.5  -1.2  754  304           
09 17.01.13 080 (В) 10 км    9/9 1000 м 
[Sc]
+2.1 -2.7 71 +3  1006.8  -1.7  752  301           
12 17.01.13 210 (ЮЗ) 10 км    9/1 1000 м средняя, верхняя 
[Sc|Ac trans|Ci fib]
+13 -3.2 32 +13  1006.4  -0.3  752  290           
15 17.01.13 200 (Ю) 3{11}  10 км    10/0 средняя, верхняя 
[Ac trans|Ci fib]
+10.8 -1.2 43 +10  1008.7  2.3  754  292    +13.8       
18 17.01.13 210 (ЮЗ) 10 км    10/0 средняя, верхняя 
[Ac trans|Ci fib]
+9.5 +2.3 61 +9  1011.1  2.3  756  294           
21 17.01.13 190 (Ю) 10 км  в посл. час дождь  9/6 300 м средняя 
[Sc|Ac trans]
+8.7 +4.3 74 +9  1012.4  1.3  757  295           
00 18.01.13 190 (Ю) 10 км  {дождь}  8/8 1000 м 
[Sc]
+8.4 +4.6 77 +8  1013.1  1.3  757  295           
03 18.01.13 210 (ЮЗ) 3{11}  10 км    10/10 1000 м 
[Sc]
+9.2 +3.9 69 +9  1013.5  0.4  757  295  +7.9    0.0     
06 18.01.13 000 (С) 10 км    4/4 1000 м верхняя 
[Sc|Ci fib]
+3.1   1014.4  0.9  758             
09 18.01.13 220 (ЮЗ) 10 км    5/3 1000 м средняя, верхняя 
[Sc|Ac trans|Ci fib]
+14.9 +1.1 39 +15  1013.5  -0.8  757  289           
12 18.01.13 220 (ЮЗ) 10 км    9/4 1000 м средняя 
[Sc|Ac trans]
+14.5 +0.4 38 +15  1012.4  -1.1  757  289           
18 18.01.13 100 (В) 10 км  {дождь}  6/4 1000 м средняя, верхняя 
[Sc|Ac trans|Ci fib]
+9.8 +1.8 57 +10  1012  0.1  756  294           
21 18.01.13 090 (В) 10 км    10/10 1000 м 
[Sc]
+8.5 +2.1 64 +10  1011.5  -0.6  756  295           
00 19.01.13 140 (ЮВ) 10 км    10/8 1000 м средняя 
[Sc|Ac und]
+11.5 +1.5 50 +13  1010.7  -0.7  755  292           
03 19.01.13 110 (В) 10 км    10/5 1000 м средняя 
[Sc|Ac und]
+9.2 +2.6 63 +9  1009  -1.7  754  294  +7.5         
06 19.01.13 070 (В) 10 км    8/3 1000 м средняя 
[Sc|Ac trans]
+7.9 +2.1 67 +9  1009.3  0.2  754  295           
09 19.01.13 080 (В) 10 км    10/6 1000 м средняя 
[Sc|Ac und]
+10.6 +1.8 54 +11  1007.7  -1.5  753  292           
12 19.01.13 070 (В) 10 км    10/6 1000 м средняя 
[Sc|Ac und]
+11.7 +2.9 55 +13  1006.3  -1.4  752  290           
15 19.01.13 210 (ЮЗ) 10 км    10/3 1000 м средняя, верхняя 
[Sc|Ac trans|Ci fib]
+12.3 -3.3 34 +13  1006.5  0.3  752  290    +15       
18 19.01.13 210 (ЮЗ) 10 км    8/3 1000 м средняя, верхняя 
[Sc|Ac trans|Ci fib]
+11.9 +0.7 46 +12  1007.3  0.8  753  291           
21 19.01.13 160 (Ю) 10 км    8/4 1000 м средняя, верхняя 
[Sc|Ac trans|Ci fib]
+12.1 +0.8 46 +12  1006.5  -0.8  752  290           
00 20.01.13 190 (Ю) 10 км    10/8 1000 м средняя 
[Sc|Ac und]
+12.2 +0.2 44 +13  1006.5  752  290           
03 20.01.13 190 (Ю) 10 км  {ливн. осадки}  10/8 1000 м кучево-дожд., средняя, верхняя 
[Cb cap|Ac trans|Ci fib]
+10.4 +3.3 61 +10  1007  0.4  753  292  +10.4    0.0     
06 20.01.13 190 (Ю) 10 км  в посл. час ливневой дождь  10/10 600 м кучево-дожд. 
[Cb cap]
+7.9 +5.9 87 +8  1009.5  2.4  754  294  +7.8         
09 20.01.13 230 (ЮЗ) 6-14{12}  10 км  {ливн. осадки}  8/4 600 м средняя, верхняя 
[Cu med, cong|Ac trans|Ci fib]
+9.5 -0.7 49 +8  1010.1  0.7  755  294           
12 20.01.13 210 (ЮЗ) 4{14}  10 км  {ливн. осадки}  10/6 600 м средняя 
[Sc|Ac und]
+8.2 +2.7 68 +7  1010.4  0.2  755  295           
15 20.01.13 200 (Ю) 10 км  в посл. час ливневой дождь  10/8 1000 м кучево-дожд., средняя 
[Cb cap|Ac und]
+7.2 +4.6 84 +7  1010  -0.4  755  296    +10.5     
18 20.01.13 210 (ЮЗ) 10 км  {ливн. осадки}  9/8 1000 м кучево-дожд., средняя 
[Cb cap|Ac trans]
+8 +4.1 76 +7  1010.9  0.9  755  295           
21 20.01.13 230 (ЮЗ) 10 км    9/9 1000 м 
[Sc]
+8.1 +2.1 66 +7  1012.4  1.6  757  296           
00 21.01.13 тихо ()   10 км    ясно 
+5.3 +2.6 83 +5  1013.6  1.1  757  299           
06 21.01.13 210 (ЮЗ) 10 км    10/10 600 м кучево-дожд. 
[Cb cap]
+9.3 +4.9 74 +9  1014.1  0.4  758  295           
09 21.01.13 220 (ЮЗ) 5-11{12}  10 км    10/10 1000 м 
[Sc|Ac und]
+10.7 +5.6 71 +10  1014.1  758  293           
12 21.01.13 210 (ЮЗ) 7-13{13}  10 км    8/3 1500 м средняя, верхняя 
[Sc|Ac trans|Cc]
+11.4 +5.4 67 +10  1013.2  -0.9  757  292           
15 21.01.13 210 (ЮЗ) 5-10{15}  10 км    10/10 1000 м 
[Sc]
+10.9 +5.3 68 +10  1013.6  0.4  758  293    +12.1       
21 21.01.13 220 (ЮЗ) 10 км    3/0 верхняя 
[Cc]
+11.6 +4.6 62 +12  1012  -1  756  292           
00 22.01.13 220 (ЮЗ) 10 км    10/0 верхняя 
[Cc]
+12.1 +3.4 55 +12  1011.1  -0.9  756  291           
06 22.01.13 240 (ЮЗ) 10 км    10/3 1000 м средняя, верхняя 
[Sc|Ac trans|Ci fib]
+13 +3.5 52 +13  1009.7  -0.9  755  290           
09 22.01.13 270 (З) 10 км    8/3 1000 м средняя, верхняя 
[Sc|Ac trans|Cc]
+15.6 +4.3 47 +17  1008.6  -1.1  754  287           
12 22.01.13 210 (ЮЗ) 4{10}  10 км    10/3 1000 м средняя, верхняя 
[Sc|Ac trans|Ci fib]
+17.6 +2.3 36 +18  1006.7  -1.9  752  284           
18 22.01.13 200 (Ю) 5-10{10}  10 км    10/6 1000 м средняя 
[Sc|Ac und]
+14.9 +1.5 40 +14  1007  0.4  753  287           
21 22.01.13 250 (З) 10 км    8/6 1000 м средняя 
[Sc|Ac trans]
+14.8 +2.6 44 +15  1007  753  287           
00 23.01.13 240 (ЮЗ) 10 км    10/8 1000 м средняя 
[Sc|Ac und]
+13.6 +4.1 53 +15  1007.2  0.2  753  288           
03 23.01.13 220 (ЮЗ) 10 км  слаб. дождь  10/6 600 м средняя 
[Sc|Ac und]
+12.3 +5.2 62 +13  1007.5  0.3  753  289  +12.3    0.0     
06 23.01.13 190 (Ю) 10 км  в посл. час ливневой дождь  9/9 300 м кучево-дожд. 
[Cb cap]
+10.1 +8.1 87 +10  1009.5  754  292  +9.8         
09 23.01.13 210 (ЮЗ) 5-11{11}  10 км    6/1 600 м верхняя 
[Cu hum|Ci fib]
+13.7 +7.8 67 +13  1009.5  754  288           
12 23.01.13 210 (ЮЗ) 10 км    6/6 600 м 
[Sc]
+13.9 +7 63 +13  1009.3  -0.2  754  288           
15 23.01.13 200 (Ю) 5{11}  10 км    6/4 1000 м средняя 
[Sc|Ac cast]
+11.8 +7.3 74 +11  1009.8  0.5  755  290    +14.2     
18 23.01.13 210 (ЮЗ) 10 км    8/8 1000 м 
[Sc]
+10.8 +7.1 78 +11  1009.1  0.5  754  291           
21 23.01.13 240 (ЮЗ) 10 км    9/9 600 м кучево-дожд. 
[Cb cap]
+12.1 +6.9 70 +12  1008.9  -0.2  754  290           
03 24.01.13 270 (З) 4000 м  слаб. ливневой дождь  10/10 300 м кучево-дожд. 
[Cb cap]
+8.2 +6.7 90 +7  1010.7  1.9  755  294  +8.2       
06 24.01.13 220 (ЮЗ) 10 км  {ливн. осадки}  9/8 1000 м кучево-дожд., верхняя 
[Cb cap|Ci ing]
+8.4 +4.6 77 +8  1012.2  1.4  756  295  +7.6         
09 24.01.13 240 (ЮЗ) 5-10{13}  10 км    9/9 1000 м кучево-дожд. 
[Cb cap]
+10.4 +1.7 55 +9  1013.5  1.3  757  294           
12 24.01.13 300 (СЗ) 3{13}  10 км    9/9 1000 м кучево-дожд. 
[Cb cap]
+8.5 +5 79 +8  1014.1  0.6  758  295           
15 24.01.13 300 (СЗ) 10 км    1/1 1000 м 
[Sc]
+6 +3.9 86 +7  1014.9  0.8  758  298    +11  0.4     
18 24.01.13 310 (СЗ) 10 км    ясно 
+4.7 +2.9 88 +6  1015  0.1  758  300           
21 24.01.13 тихо ()   10 км    8/0 средняя 
[Ac trans]
+3.4 +1.1 85 +3  1014.9  0.1  758  302           
00 25.01.13 тихо ()   10 км    ясно 
+1.6 +0.2 91 +2  1014.3  -0.7  758  304           
06 25.01.13 060 (СВ) 4000 м  дымка  9/9 300 м 
[St]
+1.8 +0.8 93 +3  1012.5  -0.6  757  303  +0.6         
09 25.01.13 080 (В) 10 км    10/3 1500 м средняя, верхняя 
[Sc|Ac trans|Cc]
+8.8 +3.1 67 +8  1009.5  -0.6  754  294           
12 25.01.13 080 (В) 10 км    10/3 1500 м средняя, верхняя 
[Sc|Ac trans|Cc]
+9.9 +3.2 63 +10  1006.9  -2.5  752  292           
15 25.01.13 070 (В) 10 км    10/8 1000 м средняя 
[Sc|Ac und]
+9 +3.3 67 +9  1006.3  -0.6  752  293    +10.2       
18 25.01.13 090 (В) 4000 м  слаб. ливневой дождь  10/10 1000 м кучево-дожд. 
[Cb cap]
+7.3 +4.6 83 +8  1006.4  -0.1  752  294           
21 25.01.13 080 (В) 10 км  {ливн. осадки}  10/10 600 м кучево-дожд. 
[Cb cap]
+7.3 +6 91 +8  1006.8  0.4  752  294           
00 26.01.13 150 (ЮВ) 4000 м  слаб. ливневой дождь  10/10 600 м кучево-дожд. 
[Cb cap]
+8.4 +5.9 84 +8  1007.3  0.4  753  293           
03 26.01.13 230 (ЮЗ) 10 км  {ливн. осадки}  9/4 1000 м средняя, верхняя 
[Sc|Ac trans|Ci fib]
+8.9 +6.6 86 +10  1009.1  1.8  754  293  +7       
06 26.01.13 200 (Ю) 10 км  {ливн. осадки}  8/4 1000 м средняя, верхняя 
[Sc|Ac trans|Cc]
+9.2 +5.1 76 +9  1011.2  1.8  756  294           
09 26.01.13 220 (ЮЗ) 10 км    9/4 1000 м средняя, верхняя 
[Sc|Ac trans|Cc]
+11.3 +6.3 71 +12  1011.6  0.4  756  291           
12 26.01.13 240 (ЮЗ) 10 км    10/4 1000 м средняя, верхняя 
[Sc|Ac trans|Ci fib]
+12.6 +5.3 61 +13  1011.5  0.1  756  290           
15 26.01.13 070 (В) 10 км    10/4 1000 м средняя, верхняя 
[Sc|Ac trans|Ci fib]
+10 +5.9 76 +11  1012.3  0.8  756  293    +13.1       
18 26.01.13 070 (В) 10 км    8/3 1000 м средняя 
[Sc|Ac trans]
+8 +5.7 85 +9  1012.7  0.3  757  295           
21 26.01.13 050 (СВ) 10 км    10/6 1000 м средняя 
[Sc|Ac und]
+8.6 +4.1 73 +10  1011.5  -1.1  756  295           
00 27.01.13 070 (В) 10 км    10/10 1000 м 
+8.5 +4 73 +10  1012.1  0.6  756  295           
09 27.01.13 070 (В) 10 км    9/4 1000 м средняя, верхняя 
[Sc|Ac lent|Ci fib]
+9.6 +2.9 63 +9  1010.2  -0.9  755  293           
12 27.01.13 100 (В) 10 км    10/10 1000 м кучево-дожд. 
[Cb cap]
+9 +2.9 66 +8  1009.6  -0.6  755  294           
18 27.01.13 090 (В) 10 км  слаб. ливневой дождь  10/10 1000 м кучево-дожд. 
[Cb cap]
+5.8 +1.5 74 +6  1011.5  1.4  756  298           
21 27.01.13 090 (В) 4000 м  слаб. ливневой дождь  10/10 600 м кучево-дожд. 
[Cb cap]
+3.5 +0.4 80 +2  1012.2  0.7  756  301           
03 28.01.13 100 (В) 10 км  {ливн. осадки}  10/10 600 м кучево-дожд. 
[Cb cap]
+3.2 +1.8 90 +3  1012.9  0.5  757  301  +2.8       
06 28.01.13 070 (В) 10 км  {ливн. осадки}  8/6 300 м кучево-дожд., средняя, верхняя 
[Cb cap|Ac trans|Ci fib]
+3.1 +1.9 92 +3  1014.3  1.4  758  302           
09 28.01.13 070 (В) 10 км    10/10 300 м кучево-дожд. 
[Cb cap]
+6.2 +4 86 +7  1015  0.7  758  298           
12 28.01.13 180 (Ю) 10 км    10/8 600 м средняя 
[Sc|Ac und]
+10.4 +6.4 76 +12  1014.7  -0.3  758  293           
15 28.01.13 тихо ()   10 км    10/8 1000 м средняя 
[Sc|Ac und]
+9 +6.1 82 +9  1015.5  0.7  759  295    +10.9  0.0     
18 28.01.13 050 (СВ) 4000 м  слаб. дождь  10/6 600 м средняя 
[Sc|As op]
+8.1 +7.1 93 +9  1015.8  0.3  759  296           
21 28.01.13 050 (СВ) 10 км  {дождь}  10/8 600 м средняя 
[Sc|Ac und]
+7.3 +6.3 93 +8  1015.4  -0.4  759  297           
00 29.01.13 030 (СВ) 10 км  {дождь}  9/9 1000 м 
[Sc]
+6 +5.1 94 +7  1014.2  -1.2  758  298           
06 29.01.13 060 (СВ) 10 км  {дождь}  10/8 300 м верхняя 
[St|Ci fib]
+3.6 +1.6 87 +3  1014.3  0.3  758  301  +3.6         
09 29.01.13 090 (В) 10 км    9/9 300 м 
[St]
+4.3 +1.8 84 +4  1013.9  -0.4  758  300           
12 29.01.13 020 (С) 10 км    9/9 600 м 
[Sc]
+5.8 +2.2 78 +6  1013.5  -0.4  757  298           
15 29.01.13 030 (СВ) 10 км    10/10 600 м 
[St]
+4.2 +1.8 84 +4  1014.3  -0.4  758  301    +6.1  0.0     
18 29.01.13 030 (СВ) 10 км    10/10 600 м 
[St]
+3.7 +1.2 84 +3  1014.5  0.6  758  301      0.0     
21 29.01.13 050 (СВ) 10 км    10/10 300 м 
[St]
+2.7 +0.8 87 +3  1014.8  0.3  758  302           
00 30.01.13 050 (СВ) 4000 м  слаб. морось  10/10 300 м 
[St]
+2.1 +1 93 +3  1015.1  0.2  758  303           
03 30.01.13 050 (СВ) 10 км  {морось}  10/10 300 м 
[St]
+1.9 +0.7 92 +3  1015.3  0.2  759  303  +1.8    0.0     
06 30.01.13 050 (СВ) 0500 м  слаб. морось{туман}  ?/?  
+2 +1.1 94 +3  1015.8  0.5  759  303           
09 30.01.13 тихо ()   2000 м  слаб. морось{туман}  10/10 100 м 
[St]
+3 +1.5 90 +3  1015.6  -0.2  759  302           
12 30.01.13 тихо ()   4000 м  слаб. дождь{морось}  10/10 200 м 
[Frnb|Ns]
+3.6 +1.7 87 +4  1015.2  -0.4  759  301           
15 30.01.13 060 (СВ) 4000 м  слаб. дождь  10/10 200 м 
[Frnb|Ns]
+3.2 +1.8 90 +4  1016  0.8  759  302    +3.8     
18 30.01.13 тихо ()   10 км  {дождь}  10/10 300 м 
[Frnb|Ns]
+3.2 +1.7 90 +3  1016.1  0.1  759  302           
21 30.01.13 070 (В) 10 км    10/10 300 м 
[Frnb|Ns]
+3.2 +1.9 91 +4  1015.8  -0.4  759  302           
00 31.01.13 тихо ()   10 км    10/10 600 м 
+3.2 +2.1 92 +3  1015.5  -0.3  759  302           
03 31.01.13 тихо ()   4000 м  дымка  10/10 300 м 
[St]
+3 +2 93 +3  1014.7  -0.8  758  302  +2.6    0.6     
06 31.01.13 070 (В) 2000 м  дымка  10/10 100 м 
[St]
+2.7 +1.7 93 +3  1014.3  -0.4  758  302           
09 31.01.13 190 (Ю) 4000 м  дымка  10/10 200 м 
[St]
+4.3 +2.4 87 +5  1013.1  -1.1  757  300           
12 31.01.13 310 (СЗ) 10 км    9/8 600 м кучево-дожд., средняя 
[Cb cap|Ac trans]
+5.9 +1.6 74 +6  1011.7  -1.3  756  298           
15 31.01.13 320 (СЗ) 10 км    9/8 600 м кучево-дожд., средняя 
[Cb cap|Ac trans]
+4.7 +1.5 80 +6  1011.3  -1.3  756  299    +6.1       
18 31.01.13 тихо ()   10 км    10/8 1000 м средняя 
[Sc|Ac und]
+4.2 +1.6 83 +4  1011.4  0.1  756  300           
21 31.01.13 200 (Ю) 4000 м  дымка  5/5 200 м 
[St]
+2.3 +1.1 92 +3  1010.5  -0.9  755  302           
00 01.02.13 190 (Ю) 4000 м  дымка  10/8 600 м средняя, верхняя 
[Sc|Ac trans|Ci fib]
+1.9 +1 94 +3  1009.9  -0.6  755  302           
06 01.02.13 180 (Ю) 10 км    10/10 1000 м 
[Sc]
+4.1 +0.4 77 +4  1009.8  0.6  755  299           
09 01.02.13 210 (ЮЗ) 10 км    10/3 1000 м средняя, верхняя 
[Sc|Ac As|Ci]
+7.6 +0.2 59 +6  1008.8  -0.9  754  295           
12 01.02.13 220 (ЮЗ) 10 км  слаб. дождь  10/9 1000 м средняя 
[Sc|Ac und]
+7.2 +1.3 66 +7  1008.8  754  296           
15 01.02.13 210 (ЮЗ) 4000 м  слаб. дождь  10/10 300 м 
[Frnb|Ns]
+5 +3.3 89 +5  1009.7  0.8  755  298    +8.2     
18 01.02.13 210 (ЮЗ) 4000 м  слаб. дождь  10/10 300 м 
[Frnb|Ns]
+4 +2.9 92 +5  1010.1  0.4  755  299           
21 01.02.13 тихо ()   10 км  {дождь}  10/3 300 м средняя 
[St|Ac und]
+3.5 +2.4 92 +4  1010.5  0.3  755  300           
00 02.02.13 170 (Ю) 10 км  {дождь}  8/0 верхняя 
[Cs]
+2.4 +1.4 93 +3  1010.5  755  301           
03 02.02.13 160 (Ю) 10 км    10/0 средняя, верхняя 
[Ac trans|Cs]
+2.8 +1.3 90 +4  1010.2  -0.3  755  301  +2.2       
06 02.02.13 200 (Ю) 10 км  {ливн. осадки}  10/5 600 м кучево-дожд., средняя, верхняя 
[Cb cap|Ac trans|Cc]
+3.5 +2.2 91 +3  1012.1  1.9  756  301           
09 02.02.13 220 (ЮЗ) 10 км    10/8 600 м кучево-дожд., средняя, верхняя 
[Cb cap|Ac trans|Cc]
+8 +3.3 72 +7  1012.9  0.8  757  296           
15 02.02.13 210 (ЮЗ) 10 км  {ливн. осадки}  8/4 1000 м кучево-дожд., средняя 
[Cb cap|Ac trans]
+6.5 +3.2 79 +6  1016.2  1.5  759  298    +8     
18 02.02.13 150 (ЮВ) 10 км  {ливн. осадки}  ясно 
+4.7 +2.6 86 +6  1017.6  1.3  760  301           
21 02.02.13 150 (ЮВ) 10 км    ясно 
+4.6 +1.1 78 +5  1018.1  0.4  761  301           
00 03.02.13 110 (В) 10 км    ясно 
+5.4 -0.1 68 +6  1017.7  -0.3  761  300           
03 03.02.13 090 (В) 10 км    8/8 1000 м 
[Sc]
+5.5 +0.3 69 +6  1017.2  -0.5  760  300  +3.9         
06 03.02.13 110 (В) 10 км    10/3 1000 м средняя, верхняя 
[Sc|Ac trans|Cc]
+6.1 -1.4 59 +7  1017.6  0.3  760  300           
09 03.02.13 180 (Ю) 10 км    8/3 1000 м верхняя 
[Sc|Ci fib]
+13.8 -5 27 +14  1015.7  -1.8  759  292           
12 03.02.13 210 (ЮЗ) 5{12}  10 км    10/4 1000 м средняя, верхняя 
[Sc|Ac trans|Ci fib]
+14.6 -7.3 21 +14  1015.5  -0.2  759  291           
15 03.02.13 190 (Ю) 2{12}  10 км    10/10 1000 м кучево-дожд. 
[Cb cap]
+13.1 -6 26 +14  1015.6  759  292    +15.4       
18 03.02.13 180 (Ю) 10 км    10/0 верхняя 
[Ci fib]
+12.4 -5.3 29 +12  1015  -0.6  758  293           
21 03.02.13 180 (Ю) 10 км    6/6 1000 м 
[Sc]
+11.8 -4.2 32 +13  1015.5  0.5  759  294           
00 04.02.13 150 (ЮВ) 10 км    10/0 средняя 
[Ac und]
+11.5 -2.8 37 +13  1014.6  -0.9  758  293           
03 04.02.13 190 (Ю) 10 км    10/0 верхняя 
[Ci fib]
+15.1 -2.8 29 +15  1013.3  -0.9  757  289  +10.7         
06 04.02.13 240 (ЮЗ) 10 км    10/10 1000 м 
[Sc]
+14.9 -4.3 26 +15  1015.3  759  290           
09 04.02.13 200 (Ю) 7-14{15}  10 км    10/3 1000 м средняя, верхняя 
[Sc|Ac trans|Cc]
+16.1 +1.4 37 +16  1015.7  0.4  759  289           
12 04.02.13 220 (ЮЗ) 5-12{14}  10 км    10/3 1000 м средняя, верхняя 
[Sc|Ac trans|Ci]
+16.5 +4.2 44 +16  1015.3  -0.4  759  288           
18 04.02.13 340 (С) 10 км    8/0 средняя, верхняя 
[Ac trans|Ci]
+8.2 +4.5 78 +8  1017.2  0.5  760  297           
21 04.02.13 тихо ()   10 км    10/0 средняя, верхняя 
[Ac trans|Ci]
+6.2 +2.9 79 +6  1015.9  -1.3  759  299           
00 05.02.13 тихо ()   10 км    10/10 1000 м 
+5.8 +2.4 79 +6  1015.9  -0.1  759  299           
03 05.02.13 340 (С) 10 км    10/10 600 м 
[Sc]
+5.1 +1.9 80 +6  1015  -0.9  758  300  +5.1         
06 05.02.13 180 (Ю) 4000 м  слаб. ливневой дождь  10/10 600 м кучево-дожд. 
[Cb cap]
+4.6 +3.5 93 +5  1015.9  0.8  759  300           
09 05.02.13 150 (ЮВ) 10 км  {ливн. осадки}  8/8 600 м кучево-дожд. 
[Cb cap]
+7 +4.6 85 +7  1015.5  -0.3  759  297           
12 05.02.13 270 (З) 4{10}  10 км  {ливн. осадки}  5/5 600 м кучево-дожд. 
[Cb cap]
+8.5 +2.3 65 +7  1017.3  1.8  760  297           
Время (UTC), дата Ветер
(°,м/с) 
Видим.   Явления Облачность Т
(°С)
Тd
(°С)
f(%) Тe
(°С)
Pmin
(гПа)
dP
(гПа)
Po
(мм)
O2
(г/м3)
Тmin Tmax R s Состояние
почвы